CCM6205 BIKF-CYUL

Flight info

Callsign CCM6205
Flight time 5h 10m
Altitude 36000
Route SORIR3A SORIR DCT SOPEN DCT DA DCT 65N040W 63N050W DCT NIFTY DCT PEPKI/N0465F360 DCT 5330N07000W/N0470F380 DCT ULDON DCT OBRET LFLER7
Aircraft B38M/M-SDE1FGHILORVWXY/HB1

Departure

Time 2026-05-07 20:45
Airport Keflavik International Airport (BIKF)

Arrival

Time 2026-05-08 01:55
Airport Montreal / Pierre Elliott Trudeau International Airport (CYUL)
Time Latitude Longitude Altitude Speed Heading
2026-05-07 20:14 63.99484 -22.62476 137 ft 0 kts 90°
2026-05-07 20:18 63.99484 -22.62477 137 ft 0 kts 90°
2026-05-07 20:24 63.99484 -22.62478 142 ft 0 kts 90°
2026-05-07 20:30 63.99484 -22.62517 140 ft 4 kts 90°
2026-05-07 20:30 63.99484 -22.62577 145 ft 3 kts 90°
2026-05-07 20:30 63.99488 -22.62627 145 ft 4 kts 124°
2026-05-07 20:30 63.99507 -22.62652 145 ft 4 kts 176°
2026-05-07 20:31 63.99521 -22.62653 145 ft 1 kts 180°
2026-05-07 20:31 63.99523 -22.62653 145 ft 0 kts 180°
2026-05-07 20:32 63.99521 -22.62653 145 ft 1 kts 180°
2026-05-07 20:33 63.99505 -22.62653 145 ft 3 kts 180°
2026-05-07 20:33 63.99474 -22.62653 146 ft 6 kts 180°
2026-05-07 20:33 63.99429 -22.62677 145 ft 8 kts 201°
2026-05-07 20:33 63.99369 -22.62732 145 ft 11 kts 198°
2026-05-07 20:34 63.99297 -22.62743 145 ft 0 kts 178°
2026-05-07 20:37 63.99291 -22.62743 145 ft 3 kts 177°
2026-05-07 20:37 63.99242 -22.62688 145 ft 12 kts 151°
2026-05-07 20:37 63.99175 -22.62536 145 ft 17 kts 88°
2026-05-07 20:38 63.99174 -22.62250 145 ft 19 kts 91°
2026-05-07 20:38 63.99174 -22.61950 145 ft 20 kts 89°
2026-05-07 20:38 63.99174 -22.61659 150 ft 17 kts 90°
2026-05-07 20:38 63.99174 -22.61413 156 ft 14 kts 90°
2026-05-07 20:39 63.99174 -22.61272 158 ft 13 kts 89°
2026-05-07 20:39 63.99174 -22.61087 163 ft 11 kts 90°
2026-05-07 20:39 63.99155 -22.60955 167 ft 8 kts 142°
2026-05-07 20:39 63.99104 -22.60933 169 ft 10 kts 181°
2026-05-07 20:40 63.99015 -22.60939 173 ft 17 kts 180°
2026-05-07 20:40 63.98871 -22.60939 171 ft 24 kts 180°
2026-05-07 20:40 63.98713 -22.60938 169 ft 22 kts 180°
2026-05-07 20:40 63.98568 -22.60936 171 ft 20 kts 179°
2026-05-07 20:41 63.98426 -22.60933 163 ft 21 kts 179°
2026-05-07 20:41 63.98272 -22.60941 167 ft 23 kts 181°
2026-05-07 20:41 63.98110 -22.60937 169 ft 23 kts 179°
2026-05-07 20:41 63.97951 -22.60936 171 ft 23 kts 180°
2026-05-07 20:42 63.97786 -22.60938 172 ft 24 kts 180°
2026-05-07 20:42 63.97611 -22.60938 170 ft 26 kts 180°
2026-05-07 20:42 63.97460 -22.60887 169 ft 18 kts 129°
2026-05-07 20:42 63.97431 -22.60641 173 ft 13 kts 100°
2026-05-07 20:43 63.97465 -22.60542 175 ft 0 kts 359°
2026-05-07 20:44 63.97519 -22.60544 175 ft 35 kts 360°
2026-05-07 20:44 63.98045 -22.60541 174 ft 113 kts
2026-05-07 20:44 63.99027 -22.60568 377 ft 160 kts
2026-05-07 20:45 64.00153 -22.60621 1353 ft 164 kts
2026-05-07 20:45 64.01360 -22.60597 2112 ft 184 kts
2026-05-07 20:45 64.02733 -22.60582 2689 ft 209 kts
2026-05-07 20:45 64.04268 -22.60584 3358 ft 230 kts 359°
2026-05-07 20:46 64.05794 -22.61704 4467 ft 236 kts 328°
2026-05-07 20:46 64.06870 -22.64645 5499 ft 253 kts 299°
2026-05-07 20:46 64.07402 -22.68561 6487 ft 261 kts 291°
2026-05-07 20:46 64.07904 -22.72525 7421 ft 264 kts 291°
2026-05-07 20:47 64.08417 -22.76584 8407 ft 266 kts 291°
2026-05-07 20:47 64.08928 -22.80651 9397 ft 268 kts 291°
2026-05-07 20:47 64.09444 -22.84778 10325 ft 270 kts 290°
2026-05-07 20:47 64.09965 -22.88955 11031 ft 279 kts 290°
2026-05-07 20:48 64.10515 -22.93377 11382 ft 299 kts 290°
2026-05-07 20:48 64.11103 -22.98117 11713 ft 320 kts 289°
2026-05-07 20:48 64.11718 -23.03104 11998 ft 338 kts 289°
2026-05-07 20:48 64.12367 -23.08390 12419 ft 351 kts 288°
2026-05-07 20:49 64.13029 -23.13798 13192 ft 353 kts 289°
2026-05-07 20:49 64.13693 -23.19235 13911 ft 357 kts 288°
2026-05-07 20:49 64.14364 -23.24754 14511 ft 362 kts 288°
2026-05-07 20:49 64.15042 -23.30339 15106 ft 365 kts 288°
2026-05-07 20:50 64.15722 -23.35979 15753 ft 368 kts 288°
2026-05-07 20:50 64.16404 -23.41647 16370 ft 370 kts 288°
2026-05-07 20:50 64.17092 -23.47377 16966 ft 373 kts 288°
2026-05-07 20:50 64.17771 -23.53067 17545 ft 376 kts 288°
2026-05-07 20:51 64.18671 -23.58712 18039 ft 377 kts 297°
2026-05-07 20:51 64.19782 -23.64211 18586 ft 380 kts 297°
2026-05-07 20:51 64.20894 -23.69763 19061 ft 383 kts 297°
2026-05-07 20:51 64.22012 -23.75352 19543 ft 386 kts 297°
2026-05-07 20:52 64.23119 -23.80897 20026 ft 388 kts 297°
2026-05-07 20:52 64.24249 -23.86574 20503 ft 390 kts 297°
2026-05-07 20:52 64.25382 -23.92277 20960 ft 393 kts 297°
2026-05-07 20:52 64.26517 -23.98008 21403 ft 395 kts 297°
2026-05-07 20:53 64.27661 -24.03805 21860 ft 398 kts 297°
2026-05-07 20:53 64.28809 -24.09631 22327 ft 400 kts 298°
2026-05-07 20:53 64.29958 -24.15488 22789 ft 402 kts 298°
2026-05-07 20:53 64.31114 -24.21390 23208 ft 404 kts 298°
2026-05-07 20:54 64.32256 -24.27245 23631 ft 406 kts 298°
2026-05-07 20:54 64.33420 -24.33221 24015 ft 409 kts 298°
2026-05-07 20:54 64.34586 -24.39231 24365 ft 411 kts 298°
2026-05-07 20:54 64.35757 -24.45280 24712 ft 413 kts 298°
2026-05-07 20:55 64.36928 -24.51353 25042 ft 415 kts 298°
2026-05-07 20:55 64.38105 -24.57470 25384 ft 417 kts 298°
2026-05-07 20:55 64.39269 -24.63538 25708 ft 419 kts 298°
2026-05-07 20:55 64.40403 -24.69783 26007 ft 424 kts 293°
2026-05-07 20:56 64.41267 -24.76330 26378 ft 425 kts 293°
2026-05-07 20:56 64.42163 -24.82865 26716 ft 427 kts 293°
2026-05-07 20:56 64.43075 -24.89423 27025 ft 429 kts 294°
2026-05-07 20:56 64.43998 -24.96013 27338 ft 431 kts 294°
2026-05-07 20:57 64.44925 -25.02640 27628 ft 433 kts 294°
2026-05-07 20:57 64.45852 -25.09290 27980 ft 433 kts 294°
2026-05-07 20:57 64.46778 -25.15957 28277 ft 435 kts 294°
2026-05-07 20:57 64.47696 -25.22587 28552 ft 437 kts 294°
2026-05-07 20:58 64.48624 -25.29324 28831 ft 439 kts 294°
2026-05-07 20:58 64.49555 -25.36103 29125 ft 441 kts 294°
2026-05-07 20:58 64.50483 -25.42888 29514 ft 440 kts 294°
2026-05-07 20:58 64.51407 -25.49663 29909 ft 439 kts 294°
2026-05-07 20:59 64.52326 -25.56441 30301 ft 438 kts 294°
2026-05-07 20:59 64.53227 -25.63110 30617 ft 438 kts 294°
2026-05-07 20:59 64.54134 -25.69856 30891 ft 438 kts 294°
2026-05-07 20:59 64.55044 -25.76641 31154 ft 438 kts 294°
2026-05-07 21:00 64.55947 -25.83412 31417 ft 438 kts 294°
2026-05-07 21:00 64.56849 -25.90194 31685 ft 438 kts 294°
2026-05-07 21:00 64.57747 -25.96975 31949 ft 439 kts 294°
2026-05-07 21:00 64.58644 -26.03776 32205 ft 439 kts 293°
2026-05-07 21:01 64.59537 -26.10577 32436 ft 439 kts 294°
2026-05-07 21:01 64.60425 -26.17374 32756 ft 437 kts 293°
2026-05-07 21:01 64.61298 -26.24076 33010 ft 438 kts 293°
2026-05-07 21:01 64.62181 -26.30881 33248 ft 438 kts 293°
2026-05-07 21:02 64.63061 -26.37706 33493 ft 438 kts 293°
2026-05-07 21:02 64.63938 -26.44524 33735 ft 438 kts 293°
2026-05-07 21:02 64.64811 -26.51342 33963 ft 438 kts 292°
2026-05-07 21:02 64.65682 -26.58178 34198 ft 439 kts 292°
2026-05-07 21:03 64.66538 -26.64917 34395 ft 439 kts 292°
2026-05-07 21:03 64.67405 -26.71769 34571 ft 439 kts 292°
2026-05-07 21:03 64.68272 -26.78642 34744 ft 440 kts 292°
2026-05-07 21:03 64.69136 -26.85506 34894 ft 439 kts 292°
2026-05-07 21:04 64.69987 -26.92354 35154 ft 438 kts 292°
2026-05-07 21:04 64.70822 -26.99226 35298 ft 438 kts 292°
2026-05-07 21:04 64.71649 -27.06028 35455 ft 439 kts 292°
2026-05-07 21:04 64.72483 -27.12903 35604 ft 439 kts 291°
2026-05-07 21:05 64.73315 -27.19789 35769 ft 439 kts 292°
2026-05-07 21:05 64.74143 -27.26673 35997 ft 438 kts 291°
2026-05-07 21:05 64.74964 -27.33540 36162 ft 438 kts 291°
2026-05-07 21:05 64.75785 -27.40419 36282 ft 438 kts 291°
2026-05-07 21:06 64.76601 -27.47301 36318 ft 439 kts 291°
2026-05-07 21:06 64.78218 -27.61017 36306 ft 438 kts 291°
2026-05-07 21:07 64.79830 -27.74822 36300 ft 438 kts 291°
2026-05-07 21:07 64.81430 -27.88643 36298 ft 438 kts 291°
2026-05-07 21:08 64.83009 -28.02409 36299 ft 435 kts 291°
2026-05-07 21:08 64.84557 -28.16040 36293 ft 434 kts 291°
2026-05-07 21:09 64.86103 -28.29768 36271 ft 434 kts 291°
2026-05-07 21:09 64.87632 -28.43486 36286 ft 431 kts 291°
2026-05-07 21:10 64.89138 -28.57115 36293 ft 432 kts 291°
2026-05-07 21:10 64.90629 -28.70740 36286 ft 432 kts 291°
2026-05-07 21:11 64.92116 -28.84456 36276 ft 432 kts 291°
2026-05-07 21:11 64.94319 -29.05013 36256 ft 430 kts 291°
2026-05-07 21:12 64.95762 -29.18657 36276 ft 427 kts 291°
2026-05-07 21:12 64.97194 -29.32321 36279 ft 427 kts 291°
2026-05-07 21:13 64.98608 -29.45947 36282 ft 427 kts 291°
2026-05-07 21:13 65.00004 -29.59535 36282 ft 428 kts 291°
2026-05-07 21:14 65.01396 -29.73218 36276 ft 428 kts 291°
2026-05-07 21:14 65.02755 -29.86717 36276 ft 428 kts 291°
2026-05-07 21:15 65.04142 -30.00624 36279 ft 428 kts 291°
2026-05-07 21:15 65.05497 -30.14348 36232 ft 427 kts 291°
2026-05-07 21:16 65.06832 -30.28026 36279 ft 425 kts 291°
2026-05-07 21:16 65.08146 -30.41628 36277 ft 425 kts 290°
2026-05-07 21:17 65.09455 -30.55320 36259 ft 425 kts 290°
2026-05-07 21:17 65.10751 -30.69004 36270 ft 424 kts 290°
2026-05-07 21:18 65.12024 -30.82600 36275 ft 424 kts 290°
2026-05-07 21:18 65.13294 -30.96306 36274 ft 424 kts 290°
2026-05-07 21:19 65.14551 -31.10020 36267 ft 424 kts 290°
2026-05-07 21:19 65.15788 -31.23670 36213 ft 424 kts 290°
2026-05-07 21:20 65.17022 -31.37433 36276 ft 426 kts 289°
2026-05-07 21:20 65.18245 -31.51230 36268 ft 425 kts 289°
2026-05-07 21:21 65.19454 -31.65018 36270 ft 426 kts 289°
2026-05-07 21:21 65.20642 -31.78729 36261 ft 425 kts 289°
2026-05-07 21:22 65.21823 -31.92517 36263 ft 425 kts 289°
2026-05-07 21:22 65.22994 -32.06343 36269 ft 425 kts 288°
2026-05-07 21:23 65.24152 -32.20182 36269 ft 425 kts 288°
2026-05-07 21:23 65.25296 -32.34017 36266 ft 425 kts 288°
2026-05-07 21:24 65.26429 -32.47888 36263 ft 426 kts 288°
2026-05-07 21:24 65.27543 -32.61685 36264 ft 426 kts 288°
2026-05-07 21:25 65.28651 -32.75578 36263 ft 426 kts 288°
2026-05-07 21:25 65.29748 -32.89517 36255 ft 425 kts 287°
2026-05-07 21:26 65.30647 -33.01057 36258 ft 425 kts 287°
2026-05-07 21:26 65.31718 -33.14984 36260 ft 425 kts 287°
2026-05-07 21:27 65.32776 -33.28905 36257 ft 425 kts 287°
2026-05-07 21:27 65.33814 -33.42748 36257 ft 425 kts 287°
2026-05-07 21:28 65.34847 -33.56727 36229 ft 425 kts 286°
2026-05-07 21:28 65.35869 -33.70704 36253 ft 426 kts 286°
2026-05-07 21:29 65.36871 -33.84614 36251 ft 425 kts 285°
2026-05-07 21:29 65.37865 -33.98608 36238 ft 426 kts 285°
2026-05-07 21:30 65.38848 -34.12639 36248 ft 425 kts 285°
2026-05-07 21:30 65.39809 -34.26546 36243 ft 425 kts 285°
2026-05-07 21:31 65.40764 -34.40549 36243 ft 425 kts 285°
2026-05-07 21:31 65.41709 -34.54619 36243 ft 425 kts 284°
2026-05-07 21:32 65.42631 -34.68573 36204 ft 425 kts 284°
2026-05-07 21:32 65.43552 -34.82680 36238 ft 426 kts 284°
2026-05-07 21:33 65.44451 -34.96672 36235 ft 426 kts 283°
2026-05-07 21:33 65.45345 -35.10805 36236 ft 426 kts 283°
2026-05-07 21:34 65.46217 -35.24819 36234 ft 426 kts 283°
2026-05-07 21:34 65.47083 -35.38932 36235 ft 426 kts 283°
2026-05-07 21:35 65.47935 -35.53035 36229 ft 426 kts 283°
2026-05-07 21:35 65.48773 -35.67160 36222 ft 426 kts 282°
2026-05-07 21:36 65.49598 -35.81281 36217 ft 426 kts 282°
2026-05-07 21:36 65.50406 -35.95343 36220 ft 427 kts 281°
2026-05-07 21:37 65.51210 -36.09551 36223 ft 427 kts 281°
2026-05-07 21:37 65.52004 -36.23773 36225 ft 427 kts 281°
2026-05-07 21:38 65.52786 -36.37986 36218 ft 427 kts 281°
2026-05-07 21:38 65.53549 -36.52082 36220 ft 426 kts 281°
2026-05-07 21:39 65.54306 -36.66293 36229 ft 426 kts 280°
2026-05-07 21:39 65.55050 -36.80512 36235 ft 426 kts 280°
2026-05-07 21:40 65.55777 -36.94637 36238 ft 426 kts 280°
2026-05-07 21:40 65.56499 -37.08909 36238 ft 426 kts 280°
2026-05-07 21:41 65.56315 -37.23123 36216 ft 436 kts 256°
2026-05-07 21:41 65.53894 -37.36737 36220 ft 443 kts 250°
2026-05-07 21:42 65.51341 -37.50219 36218 ft 444 kts 250°
2026-05-07 21:42 65.48728 -37.63706 36220 ft 444 kts 249°
2026-05-07 21:43 65.46098 -37.77174 36218 ft 444 kts 249°
2026-05-07 21:43 65.43458 -37.90597 36210 ft 443 kts 248°
2026-05-07 21:44 65.40828 -38.03884 36219 ft 443 kts 248°
2026-05-07 21:44 65.38164 -38.17257 36226 ft 443 kts 248°
2026-05-07 21:45 65.35504 -38.30526 36221 ft 443 kts 248°
2026-05-07 21:45 65.32821 -38.43823 36221 ft 441 kts 247°
2026-05-07 21:46 65.30152 -38.56967 36196 ft 441 kts 247°
2026-05-07 21:46 65.27466 -38.70110 36208 ft 438 kts 246°
2026-05-07 21:47 65.24774 -38.83205 36223 ft 438 kts 246°
2026-05-07 21:47 65.22089 -38.96179 36222 ft 438 kts 246°
2026-05-07 21:48 65.19382 -39.09179 36222 ft 438 kts 246°
2026-05-07 21:48 65.16657 -39.22190 36221 ft 438 kts 246°
2026-05-07 21:49 65.13938 -39.35089 36216 ft 438 kts 245°
2026-05-07 21:49 65.11198 -39.48007 36222 ft 437 kts 245°
2026-05-07 21:50 65.08465 -39.60817 36225 ft 437 kts 245°
2026-05-07 21:50 65.05704 -39.73676 36226 ft 437 kts 245°
2026-05-07 21:51 65.02941 -39.86491 36220 ft 437 kts 244°
2026-05-07 21:51 65.00194 -39.99254 36221 ft 436 kts 248°
2026-05-07 21:52 64.98060 -40.12651 36225 ft 436 kts 251°
2026-05-07 21:52 64.95958 -40.26140 36224 ft 436 kts 251°
2026-05-07 21:53 64.93864 -40.39528 36228 ft 436 kts 250°
2026-05-07 21:53 64.91747 -40.52968 36227 ft 436 kts 250°
2026-05-07 21:54 64.89634 -40.66283 36224 ft 436 kts 250°
2026-05-07 21:54 64.87490 -40.79697 36225 ft 436 kts 250°
2026-05-07 21:55 64.85357 -40.92951 36218 ft 435 kts 250°
2026-05-07 21:55 64.83206 -41.06221 36216 ft 434 kts 250°
2026-05-07 21:56 64.81042 -41.19477 36211 ft 434 kts 250°
2026-05-07 21:56 64.78869 -41.32694 36217 ft 434 kts 250°
2026-05-07 21:57 64.76679 -41.45920 36216 ft 433 kts 250°
2026-05-07 21:57 64.74513 -41.58912 36208 ft 429 kts 250°
2026-05-07 21:58 64.72324 -41.71953 36207 ft 428 kts 249°
2026-05-07 21:58 64.70138 -41.84886 36191 ft 427 kts 249°
2026-05-07 21:59 64.67955 -41.97719 36182 ft 427 kts 249°
2026-05-07 21:59 64.65745 -42.10620 36169 ft 427 kts 249°
2026-05-07 22:00 64.63524 -42.23497 36171 ft 427 kts 249°
2026-05-07 22:00 64.61292 -42.36359 36171 ft 427 kts 249°
2026-05-07 22:01 64.59059 -42.49133 36163 ft 422 kts 248°
2026-05-07 22:01 64.56848 -42.61702 36168 ft 421 kts 248°
2026-05-07 22:02 64.54614 -42.74323 36154 ft 421 kts 248°
2026-05-07 22:02 64.52372 -42.86907 36166 ft 421 kts 248°
2026-05-07 22:03 64.50116 -42.99485 36165 ft 421 kts 248°
2026-05-07 22:03 64.47851 -43.12034 36169 ft 421 kts 248°
2026-05-07 22:04 64.45594 -43.24459 36170 ft 418 kts 247°
2026-05-07 22:04 64.43329 -43.36855 36173 ft 416 kts 247°
2026-05-07 22:05 64.41057 -43.49209 36172 ft 417 kts 247°
2026-05-07 22:05 64.38789 -43.61467 36185 ft 417 kts 247°
2026-05-07 22:06 64.36495 -43.73785 36187 ft 417 kts 247°
2026-05-07 22:06 64.34205 -43.86006 36200 ft 415 kts 246°
2026-05-07 22:07 64.31910 -43.98182 36203 ft 413 kts 246°
2026-05-07 22:07 64.29613 -44.10295 36204 ft 411 kts 246°
2026-05-07 22:08 64.27311 -44.22364 36202 ft 411 kts 246°
2026-05-07 22:08 64.25011 -44.34347 36204 ft 411 kts 246°
2026-05-07 22:09 64.22691 -44.46365 36202 ft 411 kts 246°
2026-05-07 22:09 64.20354 -44.58396 36210 ft 411 kts 246°
2026-05-07 22:10 64.18019 -44.70351 36212 ft 411 kts 245°
2026-05-07 22:10 64.15663 -44.82344 36210 ft 411 kts 245°
2026-05-07 22:11 64.13303 -44.94281 36210 ft 411 kts 245°
2026-05-07 22:11 64.10947 -45.06132 36208 ft 411 kts 245°
2026-05-07 22:12 64.08564 -45.18048 36205 ft 411 kts 245°
2026-05-07 22:12 64.06577 -45.27934 36206 ft 411 kts 245°
2026-05-07 22:13 64.03787 -45.41731 36202 ft 411 kts 245°
2026-05-07 22:13 64.01781 -45.51596 36204 ft 412 kts 245°
2026-05-07 22:14 63.99355 -45.63467 36198 ft 412 kts 245°
2026-05-07 22:14 63.96920 -45.75309 36194 ft 412 kts 245°
2026-05-07 22:15 63.94477 -45.87127 36191 ft 412 kts 245°
2026-05-07 22:15 63.92037 -45.98858 36183 ft 412 kts 245°
2026-05-07 22:16 63.89572 -46.10649 36185 ft 412 kts 244°
2026-05-07 22:16 63.87097 -46.22420 36183 ft 413 kts 245°
2026-05-07 22:17 63.84620 -46.34132 36181 ft 413 kts 245°
2026-05-07 22:17 63.82119 -46.45891 36179 ft 413 kts 244°
2026-05-07 22:18 63.78373 -46.63384 36175 ft 413 kts 244°
2026-05-07 22:19 63.75846 -46.75102 36176 ft 413 kts 244°
2026-05-07 22:19 63.73315 -46.86775 36174 ft 413 kts 244°
2026-05-07 22:20 63.70784 -46.98386 36171 ft 412 kts 244°
2026-05-07 22:20 63.68242 -47.09980 36173 ft 412 kts 244°
2026-05-07 22:21 63.65707 -47.21483 36167 ft 412 kts 244°
2026-05-07 22:21 63.63137 -47.33077 36172 ft 412 kts 244°
2026-05-07 22:22 63.60581 -47.44549 36170 ft 412 kts 244°
2026-05-07 22:22 63.57999 -47.56077 36168 ft 412 kts 244°
2026-05-07 22:23 63.55423 -47.67516 36165 ft 411 kts 244°
2026-05-07 22:23 63.52828 -47.78973 36167 ft 411 kts 244°
2026-05-07 22:24 63.50224 -47.90414 36166 ft 411 kts 244°
2026-05-07 22:24 63.47621 -48.01787 36165 ft 411 kts 244°
2026-05-07 22:25 63.45013 -48.13122 36179 ft 411 kts 244°
2026-05-07 22:25 63.42386 -48.24481 36173 ft 409 kts 243°
2026-05-07 22:26 63.39772 -48.35727 36158 ft 407 kts 243°
2026-05-07 22:26 63.37166 -48.46879 36155 ft 407 kts 243°
2026-05-07 22:27 63.34520 -48.58142 36158 ft 408 kts 243°
2026-05-07 22:27 63.31904 -48.69221 36153 ft 407 kts 243°
2026-05-07 22:28 63.29261 -48.80358 36157 ft 408 kts 243°
2026-05-07 22:28 63.26608 -48.91477 36160 ft 407 kts 243°
2026-05-07 22:29 63.23944 -49.02588 36156 ft 408 kts 243°
2026-05-07 22:29 63.21272 -49.13687 36157 ft 407 kts 243°
2026-05-07 22:30 63.18592 -49.24773 36144 ft 408 kts 243°
2026-05-07 22:30 63.15908 -49.35819 36135 ft 408 kts 243°
2026-05-07 22:31 63.13228 -49.46800 36149 ft 408 kts 243°
2026-05-07 22:31 63.10519 -49.57847 36153 ft 408 kts 243°
2026-05-07 22:32 63.07805 -49.68859 36148 ft 408 kts 242°
2026-05-07 22:32 63.05097 -49.79795 36149 ft 408 kts 242°
2026-05-07 22:33 63.02375 -49.90739 36165 ft 408 kts 242°
2026-05-07 22:33 62.99725 -50.01785 36151 ft 407 kts 246°
2026-05-07 22:34 62.97351 -50.13107 36148 ft 407 kts 245°
2026-05-07 22:34 62.94958 -50.24392 36171 ft 407 kts 245°
2026-05-07 22:35 62.92565 -50.35607 36138 ft 404 kts 245°
2026-05-07 22:35 62.90165 -50.46795 36144 ft 406 kts 245°
2026-05-07 22:36 62.87753 -50.57979 36147 ft 406 kts 244°
2026-05-07 22:36 62.85347 -50.69080 36146 ft 406 kts 244°
2026-05-07 22:37 62.82919 -50.80220 36141 ft 406 kts 244°
2026-05-07 22:37 62.80480 -50.91349 36139 ft 406 kts 244°
2026-05-07 22:38 62.78037 -51.02444 36138 ft 406 kts 244°
2026-05-07 22:38 62.75581 -51.13535 36134 ft 405 kts 243°
2026-05-07 22:39 62.73117 -51.24606 36130 ft 405 kts 243°
2026-05-07 22:39 62.70646 -51.35649 36134 ft 405 kts 243°
2026-05-07 22:40 62.68165 -51.46686 36127 ft 405 kts 243°
2026-05-07 22:40 62.65676 -51.57694 36131 ft 405 kts 243°
2026-05-07 22:41 62.63193 -51.68621 36124 ft 405 kts 243°
2026-05-07 22:41 62.60687 -51.79599 36121 ft 405 kts 243°
2026-05-07 22:42 62.58172 -51.90553 36112 ft 405 kts 243°
2026-05-07 22:42 62.55647 -52.01495 36118 ft 405 kts 243°
2026-05-07 22:43 62.53115 -52.12415 36113 ft 405 kts 243°
2026-05-07 22:43 62.50592 -52.23243 36098 ft 405 kts 242°
2026-05-07 22:44 62.48045 -52.34118 36102 ft 405 kts 242°
2026-05-07 22:44 62.45490 -52.44970 36091 ft 405 kts 242°
2026-05-07 22:45 62.42936 -52.55766 36089 ft 404 kts 242°
2026-05-07 22:45 62.40370 -52.66559 36088 ft 404 kts 242°
2026-05-07 22:46 62.37805 -52.77291 36078 ft 404 kts 242°
2026-05-07 22:46 62.35222 -52.88048 36082 ft 404 kts 242°
2026-05-07 22:47 62.32633 -52.98778 36071 ft 404 kts 241°
2026-05-07 22:47 62.30031 -53.09508 36069 ft 404 kts 241°
2026-05-07 22:48 62.27440 -53.20138 36080 ft 403 kts 241°
2026-05-07 22:48 62.24826 -53.30814 36067 ft 403 kts 241°
2026-05-07 22:49 62.22207 -53.41461 36063 ft 403 kts 241°
2026-05-07 22:49 62.19584 -53.52067 36047 ft 403 kts 240°
2026-05-07 22:50 62.16967 -53.62599 36064 ft 404 kts 240°
2026-05-07 22:50 62.14305 -53.73263 36056 ft 404 kts 240°
2026-05-07 22:51 62.11669 -53.83771 36045 ft 403 kts 240°
2026-05-07 22:51 62.08995 -53.94382 36040 ft 403 kts 240°
2026-05-07 22:52 62.06347 -54.04836 36040 ft 403 kts 239°
2026-05-07 22:52 62.03672 -54.15348 36034 ft 403 kts 239°
2026-05-07 22:53 62.00990 -54.25839 36033 ft 403 kts 239°
2026-05-07 22:53 61.98302 -54.36303 36021 ft 403 kts 239°
2026-05-07 22:54 61.95605 -54.46754 36018 ft 403 kts 239°
2026-05-07 22:54 61.92897 -54.57197 36021 ft 404 kts 239°
2026-05-07 22:55 61.90176 -54.67642 36013 ft 404 kts 239°
2026-05-07 22:55 61.87451 -54.78056 36015 ft 404 kts 239°
2026-05-07 22:56 61.84715 -54.88456 36006 ft 404 kts 238°
2026-05-07 22:56 61.81987 -54.98784 36004 ft 404 kts 238°
2026-05-07 22:57 61.79237 -55.09146 36002 ft 404 kts 238°
2026-05-07 22:57 61.76472 -55.19513 36029 ft 406 kts 238°
2026-05-07 22:58 61.73698 -55.29868 35993 ft 405 kts 238°
2026-05-07 22:58 61.70916 -55.40207 35985 ft 405 kts 238°
2026-05-07 22:59 61.68129 -55.50518 35985 ft 405 kts 238°
2026-05-07 22:59 61.65331 -55.60819 35985 ft 405 kts 237°
2026-05-07 23:00 61.63002 -55.69360 35978 ft 405 kts 237°
2026-05-07 23:00 61.60188 -55.79631 35978 ft 406 kts 237°
2026-05-07 23:01 61.56895 -55.91599 35969 ft 407 kts 237°
2026-05-07 23:01 61.54515 -56.00208 35967 ft 407 kts 237°
2026-05-07 23:02 61.51665 -56.10473 35966 ft 407 kts 237°
2026-05-07 23:02 61.48826 -56.20653 35958 ft 407 kts 237°
2026-05-07 23:03 61.45963 -56.30872 35958 ft 407 kts 237°
2026-05-07 23:03 61.43089 -56.41083 35955 ft 408 kts 236°
2026-05-07 23:04 61.40191 -56.51333 35952 ft 410 kts 236°
2026-05-07 23:04 61.37281 -56.61582 35950 ft 410 kts 236°
2026-05-07 23:05 61.34367 -56.71797 35978 ft 410 kts 236°
2026-05-07 23:05 61.31446 -56.81991 35935 ft 408 kts 236°
2026-05-07 23:06 61.28545 -56.92071 35933 ft 409 kts 236°
2026-05-07 23:06 61.25609 -57.02226 35933 ft 409 kts 235°
2026-05-07 23:07 61.22660 -57.12380 35930 ft 411 kts 235°
2026-05-07 23:07 61.19719 -57.22465 35922 ft 411 kts 235°
2026-05-07 23:08 61.16741 -57.32640 35921 ft 411 kts 235°
2026-05-07 23:08 61.13761 -57.42783 35914 ft 411 kts 235°
2026-05-07 23:09 61.10802 -57.52813 35913 ft 411 kts 235°
2026-05-07 23:09 61.07811 -57.62908 35909 ft 411 kts 235°
2026-05-07 23:10 61.04807 -57.73004 35904 ft 413 kts 234°
2026-05-07 23:10 61.01806 -57.83049 35903 ft 413 kts 234°
2026-05-07 23:11 60.98785 -57.93117 35899 ft 413 kts 234°
2026-05-07 23:11 60.95688 -58.03097 35901 ft 412 kts 233°
2026-05-07 23:12 60.92532 -58.12992 35895 ft 413 kts 233°
2026-05-07 23:12 60.89411 -58.22811 35907 ft 413 kts 233°
2026-05-07 23:13 60.86264 -58.32677 35897 ft 412 kts 233°
2026-05-07 23:13 60.83107 -58.42535 35879 ft 413 kts 233°
2026-05-07 23:14 60.79947 -58.52361 35875 ft 412 kts 233°
2026-05-07 23:14 60.76800 -58.62105 35868 ft 412 kts 233°
2026-05-07 23:15 60.73622 -58.71905 35871 ft 412 kts 233°
2026-05-07 23:15 60.70459 -58.81617 35878 ft 413 kts 233°
2026-05-07 23:16 60.67261 -58.91393 35874 ft 414 kts 232°
2026-05-07 23:16 60.64044 -59.01187 35866 ft 415 kts 232°
2026-05-07 23:17 60.60840 -59.10904 35860 ft 415 kts 232°
2026-05-07 23:17 60.57613 -59.20644 35858 ft 415 kts 232°
2026-05-07 23:18 60.54377 -59.30374 35851 ft 415 kts 232°
2026-05-07 23:18 60.51151 -59.40032 35867 ft 415 kts 232°
2026-05-07 23:19 60.47890 -59.49755 35852 ft 417 kts 232°
2026-05-07 23:19 60.44632 -59.59430 35844 ft 418 kts 231°
2026-05-07 23:20 60.41346 -59.69148 35873 ft 418 kts 232°
2026-05-07 23:20 60.38053 -59.78843 35839 ft 417 kts 231°
2026-05-07 23:21 60.34772 -59.88464 35833 ft 417 kts 231°
2026-05-07 23:21 60.31466 -59.98117 35843 ft 418 kts 231°
2026-05-07 23:22 60.28140 -60.07791 35838 ft 420 kts 231°
2026-05-07 23:22 60.24805 -60.17448 35826 ft 419 kts 231°
2026-05-07 23:23 60.21483 -60.27031 35821 ft 419 kts 231°
2026-05-07 23:23 60.18129 -60.36665 35826 ft 420 kts 231°
2026-05-07 23:24 60.14784 -60.46234 35814 ft 419 kts 231°
2026-05-07 23:24 60.11425 -60.55802 35821 ft 420 kts 231°
2026-05-07 23:25 60.08035 -60.65421 35814 ft 422 kts 231°
2026-05-07 23:25 60.04633 -60.75035 35808 ft 422 kts 230°
2026-05-07 23:26 60.01248 -60.84560 35811 ft 422 kts 230°
2026-05-07 23:26 59.97835 -60.94125 35805 ft 422 kts 230°
2026-05-07 23:27 59.92718 -61.08392 35853 ft 422 kts 230°
2026-05-07 23:27 59.89280 -61.17930 35804 ft 424 kts 230°
2026-05-07 23:28 59.85826 -61.27474 35802 ft 424 kts 230°
2026-05-07 23:28 59.82390 -61.36941 35796 ft 424 kts 230°
2026-05-07 23:29 59.78925 -61.46449 35793 ft 424 kts 230°
2026-05-07 23:29 59.75456 -61.55935 35791 ft 424 kts 230°
2026-05-07 23:30 59.71595 -61.64476 35803 ft 416 kts 216°
2026-05-07 23:30 59.67138 -61.71956 35790 ft 420 kts 217°
2026-05-07 23:31 59.62650 -61.79418 35788 ft 420 kts 217°
2026-05-07 23:31 59.58182 -61.86800 35785 ft 420 kts 217°
2026-05-07 23:32 59.53687 -61.94198 35782 ft 420 kts 217°
2026-05-07 23:32 59.49189 -62.01575 35796 ft 421 kts 217°
2026-05-07 23:33 59.44700 -62.08910 35781 ft 422 kts 217°
2026-05-07 23:33 59.40177 -62.16274 35775 ft 422 kts 217°
2026-05-07 23:34 59.35646 -62.23625 35777 ft 422 kts 216°
2026-05-07 23:34 59.31110 -62.30959 35770 ft 422 kts 216°
2026-05-07 23:35 59.26573 -62.38268 35787 ft 422 kts 216°
2026-05-07 23:35 59.22022 -62.45572 35771 ft 424 kts 216°
2026-05-07 23:36 59.17485 -62.52828 35768 ft 424 kts 216°
2026-05-07 23:36 59.12912 -62.60116 35765 ft 424 kts 216°
2026-05-07 23:37 59.08333 -62.67388 35766 ft 424 kts 216°
2026-05-07 23:37 59.03754 -62.74634 35771 ft 424 kts 216°
2026-05-07 23:38 58.99159 -62.81879 35773 ft 426 kts 216°
2026-05-07 23:38 58.94548 -62.89125 35764 ft 426 kts 216°
2026-05-07 23:39 58.89968 -62.96296 35775 ft 426 kts 216°
2026-05-07 23:39 58.85350 -63.03501 35766 ft 427 kts 216°
2026-05-07 23:40 58.80721 -63.10696 35756 ft 427 kts 216°
2026-05-07 23:40 58.76092 -63.17867 35760 ft 427 kts 216°
2026-05-07 23:41 58.71452 -63.25031 35761 ft 427 kts 216°
2026-05-07 23:41 58.66844 -63.32119 35760 ft 427 kts 216°
2026-05-07 23:42 58.62190 -63.39253 35757 ft 427 kts 215°
2026-05-07 23:42 58.57535 -63.46363 35758 ft 427 kts 215°
2026-05-07 23:43 58.52905 -63.53412 35746 ft 427 kts 215°
2026-05-07 23:43 58.48226 -63.60510 35744 ft 428 kts 215°
2026-05-07 23:44 58.43582 -63.67530 35733 ft 428 kts 215°
2026-05-07 23:44 58.38915 -63.74561 35735 ft 428 kts 215°
2026-05-07 23:45 58.34219 -63.81610 35732 ft 428 kts 215°
2026-05-07 23:45 58.29550 -63.88595 35732 ft 429 kts 215°
2026-05-07 23:46 58.24841 -63.95615 35729 ft 429 kts 215°
2026-05-07 23:46 58.20158 -64.02572 35722 ft 429 kts 215°
2026-05-07 23:47 58.15448 -64.09546 35724 ft 429 kts 215°
2026-05-07 23:47 58.11526 -64.15335 35725 ft 429 kts 214°
2026-05-07 23:48 58.06821 -64.22256 35865 ft 431 kts 214°
2026-05-07 23:48 58.04451 -64.25734 36055 ft 431 kts 214°
2026-05-07 23:48 58.02079 -64.29209 36243 ft 432 kts 215°
2026-05-07 23:49 57.99696 -64.32695 36457 ft 432 kts 215°
2026-05-07 23:49 57.97346 -64.36125 36669 ft 432 kts 215°
2026-05-07 23:49 57.94958 -64.39605 36911 ft 432 kts 215°
2026-05-07 23:49 57.92580 -64.43064 37139 ft 433 kts 215°
2026-05-07 23:50 57.90192 -64.46533 37348 ft 433 kts 215°
2026-05-07 23:50 57.87828 -64.49959 37571 ft 433 kts 215°
2026-05-07 23:50 57.85442 -64.53414 37720 ft 433 kts 215°
2026-05-07 23:50 57.83044 -64.56878 37715 ft 434 kts 215°
2026-05-07 23:51 57.78256 -64.63778 37706 ft 433 kts 215°
2026-05-07 23:51 57.73491 -64.70621 37707 ft 433 kts 215°
2026-05-07 23:52 57.68695 -64.77486 37704 ft 433 kts 215°
2026-05-07 23:52 57.63914 -64.84305 37717 ft 433 kts 215°
2026-05-07 23:53 57.59111 -64.91133 37705 ft 434 kts 215°
2026-05-07 23:53 57.54292 -64.97961 37696 ft 434 kts 214°
2026-05-07 23:54 57.49510 -65.04714 37696 ft 434 kts 214°
2026-05-07 23:54 57.44680 -65.11509 37694 ft 434 kts 214°
2026-05-07 23:55 57.39875 -65.18248 37703 ft 434 kts 214°
2026-05-07 23:55 57.35032 -65.25018 37690 ft 435 kts 214°
2026-05-07 23:56 57.30193 -65.31757 37690 ft 435 kts 214°
2026-05-07 23:56 57.25377 -65.38444 37693 ft 435 kts 214°
2026-05-07 23:57 57.20524 -65.45159 37694 ft 435 kts 214°
2026-05-07 23:57 57.15698 -65.51814 37693 ft 435 kts 214°
2026-05-07 23:58 57.10864 -65.58457 37698 ft 435 kts 214°
2026-05-07 23:58 57.06004 -65.65115 37693 ft 435 kts 214°
2026-05-07 23:59 57.01134 -65.71763 37693 ft 435 kts 214°
2026-05-07 23:59 56.96272 -65.78380 37696 ft 436 kts 214°
2026-05-08 00:00 56.91387 -65.85003 37709 ft 438 kts 214°
2026-05-08 00:00 56.86490 -65.91623 37703 ft 438 kts 214°
2026-05-08 00:01 56.81617 -65.98188 37700 ft 438 kts 214°
2026-05-08 00:01 56.76695 -66.04796 37697 ft 438 kts 214°
2026-05-08 00:02 56.71776 -66.11379 37719 ft 438 kts 214°
2026-05-08 00:02 56.66876 -66.17915 37705 ft 439 kts 214°
2026-05-08 00:03 56.61939 -66.24479 37705 ft 439 kts 214°
2026-05-08 00:03 56.56996 -66.31027 37700 ft 439 kts 214°
2026-05-08 00:04 56.52074 -66.37527 37700 ft 439 kts 214°
2026-05-08 00:04 56.47127 -66.44039 37702 ft 439 kts 214°
2026-05-08 00:05 56.42168 -66.50545 37707 ft 439 kts 214°
2026-05-08 00:05 56.37243 -66.56986 37704 ft 439 kts 213°
2026-05-08 00:06 56.32276 -66.63459 37706 ft 439 kts 213°
2026-05-08 00:06 56.27327 -66.69888 37699 ft 439 kts 213°
2026-05-08 00:07 56.22349 -66.76334 37714 ft 440 kts 213°
2026-05-08 00:07 56.17392 -66.82732 37714 ft 441 kts 213°
2026-05-08 00:08 56.12402 -66.89152 37699 ft 439 kts 213°
2026-05-08 00:08 56.07434 -66.95523 37714 ft 441 kts 213°
2026-05-08 00:09 56.02438 -67.01908 37725 ft 441 kts 213°
2026-05-08 00:09 55.97461 -67.08248 37717 ft 441 kts 213°
2026-05-08 00:10 55.92447 -67.14615 37725 ft 441 kts 213°
2026-05-08 00:10 55.87434 -67.20961 37722 ft 441 kts 213°
2026-05-08 00:11 55.82452 -67.27246 37715 ft 441 kts 213°
2026-05-08 00:11 55.77429 -67.33565 37724 ft 442 kts 213°
2026-05-08 00:12 55.72402 -67.39866 37725 ft 442 kts 213°
2026-05-08 00:12 55.67357 -67.46170 37720 ft 442 kts 213°
2026-05-08 00:13 55.62339 -67.52421 37717 ft 443 kts 213°
2026-05-08 00:13 55.57291 -67.58689 37724 ft 443 kts 213°
2026-05-08 00:14 55.52231 -67.64951 37728 ft 444 kts 213°
2026-05-08 00:14 55.47181 -67.71180 37721 ft 444 kts 213°
2026-05-08 00:15 55.42125 -67.77398 37722 ft 444 kts 213°
2026-05-08 00:15 55.37038 -67.83634 37720 ft 444 kts 213°
2026-05-08 00:16 55.31956 -67.89844 37722 ft 445 kts 213°
2026-05-08 00:16 55.26852 -67.96060 37728 ft 446 kts 213°
2026-05-08 00:17 55.21777 -68.02223 37743 ft 446 kts 213°
2026-05-08 00:17 55.16663 -68.08412 37726 ft 447 kts 213°
2026-05-08 00:18 55.11536 -68.14598 37729 ft 447 kts 213°
2026-05-08 00:18 55.06440 -68.20726 37725 ft 447 kts 213°
2026-05-08 00:19 55.01304 -68.26883 37721 ft 447 kts 213°
2026-05-08 00:19 54.96165 -68.33025 37724 ft 447 kts 213°
2026-05-08 00:20 54.91026 -68.39147 37723 ft 447 kts 213°
2026-05-08 00:20 54.85881 -68.45258 37728 ft 448 kts 213°
2026-05-08 00:21 54.80749 -68.51333 37728 ft 448 kts 213°
2026-05-08 00:21 54.75615 -68.57391 37729 ft 448 kts 213°
2026-05-08 00:22 54.70450 -68.63468 37727 ft 448 kts 213°
2026-05-08 00:22 54.65317 -68.69488 37729 ft 448 kts 213°
2026-05-08 00:23 54.60144 -68.75536 37732 ft 448 kts 213°
2026-05-08 00:23 54.54965 -68.81571 37729 ft 448 kts 212°
2026-05-08 00:24 54.49784 -68.87592 37730 ft 448 kts 212°
2026-05-08 00:24 54.44638 -68.93551 37737 ft 448 kts 213°
2026-05-08 00:25 54.39443 -68.99551 37734 ft 450 kts 213°
2026-05-08 00:25 54.34266 -69.05509 37732 ft 450 kts 212°
2026-05-08 00:26 54.29048 -69.11497 37734 ft 450 kts 212°
2026-05-08 00:26 54.23859 -69.17434 37733 ft 450 kts 212°
2026-05-08 00:27 54.18678 -69.23342 37745 ft 450 kts 212°
2026-05-08 00:27 54.13464 -69.29271 37743 ft 450 kts 212°
2026-05-08 00:28 54.08250 -69.35186 37748 ft 450 kts 212°
2026-05-08 00:28 54.03030 -69.41089 37746 ft 450 kts 212°
2026-05-08 00:29 53.97838 -69.46943 37750 ft 450 kts 212°
2026-05-08 00:29 53.92605 -69.52825 37748 ft 450 kts 212°
2026-05-08 00:30 53.87372 -69.58690 37753 ft 450 kts 212°
2026-05-08 00:30 53.82162 -69.64512 37752 ft 450 kts 212°
2026-05-08 00:31 53.76919 -69.70354 37754 ft 451 kts 212°
2026-05-08 00:31 53.71709 -69.76140 37754 ft 451 kts 212°
2026-05-08 00:32 53.66455 -69.81959 37752 ft 451 kts 212°
2026-05-08 00:32 53.61191 -69.87771 37751 ft 451 kts 212°
2026-05-08 00:33 53.55971 -69.93519 37777 ft 451 kts 212°
2026-05-08 00:33 53.50699 -69.99295 37758 ft 452 kts 211°
2026-05-08 00:34 53.45257 -70.04529 37761 ft 452 kts 210°
2026-05-08 00:34 53.39810 -70.09831 37759 ft 452 kts 210°
2026-05-08 00:35 53.34355 -70.15152 37760 ft 452 kts 210°
2026-05-08 00:35 53.28939 -70.20421 37761 ft 452 kts 210°
2026-05-08 00:36 53.23495 -70.25702 37764 ft 452 kts 210°
2026-05-08 00:36 53.18955 -70.30094 37765 ft 452 kts 210°
2026-05-08 00:37 53.13493 -70.35364 37763 ft 452 kts 210°
2026-05-08 00:38 53.05346 -70.43195 37764 ft 453 kts 210°
2026-05-08 00:38 52.99877 -70.48432 37769 ft 452 kts 210°
2026-05-08 00:39 52.94440 -70.53624 37765 ft 452 kts 210°
2026-05-08 00:39 52.88974 -70.58828 37766 ft 453 kts 210°
2026-05-08 00:40 52.83500 -70.64024 37769 ft 452 kts 210°
2026-05-08 00:40 52.78067 -70.69167 37768 ft 452 kts 210°
2026-05-08 00:41 52.72588 -70.74338 37772 ft 453 kts 210°
2026-05-08 00:41 52.67107 -70.79495 37772 ft 453 kts 210°
2026-05-08 00:42 52.61626 -70.84637 37768 ft 452 kts 210°
2026-05-08 00:42 52.56186 -70.89727 37771 ft 452 kts 210°
2026-05-08 00:43 52.50695 -70.94850 37772 ft 452 kts 210°
2026-05-08 00:43 52.45252 -70.99911 37771 ft 452 kts 210°
2026-05-08 00:44 52.39769 -71.04997 37777 ft 452 kts 210°
2026-05-08 00:44 52.34276 -71.10077 37775 ft 452 kts 210°
2026-05-08 00:45 52.28813 -71.15115 37782 ft 452 kts 210°
2026-05-08 00:45 52.23319 -71.20167 37782 ft 452 kts 210°
2026-05-08 00:46 52.17862 -71.25171 37780 ft 452 kts 210°
2026-05-08 00:46 52.12364 -71.30197 37780 ft 452 kts 210°
2026-05-08 00:47 52.06863 -71.35213 37782 ft 452 kts 210°
2026-05-08 00:47 52.01408 -71.40171 37782 ft 452 kts 210°
2026-05-08 00:48 51.95892 -71.45171 37783 ft 452 kts 209°
2026-05-08 00:48 51.90425 -71.50114 37782 ft 452 kts 209°
2026-05-08 00:49 51.84910 -71.55085 37782 ft 452 kts 209°
2026-05-08 00:49 51.79437 -71.60003 37775 ft 452 kts 209°
2026-05-08 00:50 51.73930 -71.64940 37783 ft 452 kts 210°
2026-05-08 00:50 51.68415 -71.69868 37782 ft 452 kts 209°
2026-05-08 00:51 51.62919 -71.74768 37782 ft 452 kts 209°
2026-05-08 00:51 51.57405 -71.79670 37772 ft 452 kts 209°
2026-05-08 00:52 51.51932 -71.84520 37785 ft 452 kts 209°
2026-05-08 00:52 51.46420 -71.89392 37783 ft 451 kts 209°
2026-05-08 00:53 51.40893 -71.94264 37781 ft 451 kts 209°
2026-05-08 00:53 51.35399 -71.99094 37784 ft 452 kts 209°
2026-05-08 00:54 51.29887 -72.03925 37784 ft 451 kts 209°
2026-05-08 00:54 51.24388 -72.08732 37789 ft 451 kts 209°
2026-05-08 00:55 51.18868 -72.13546 37789 ft 451 kts 209°
2026-05-08 00:55 51.13350 -72.18347 37786 ft 452 kts 209°
2026-05-08 00:56 51.07858 -72.23110 37789 ft 452 kts 209°
2026-05-08 00:56 51.02321 -72.27901 37790 ft 452 kts 209°
2026-05-08 00:57 50.96744 -72.32573 37779 ft 453 kts 202°
2026-05-08 00:57 50.90835 -72.35939 37776 ft 453 kts 201°
2026-05-08 00:58 50.84902 -72.39326 37794 ft 453 kts 201°
2026-05-08 00:58 50.78992 -72.42681 37792 ft 453 kts 201°
2026-05-08 00:59 50.73033 -72.46054 37796 ft 453 kts 201°
2026-05-08 00:59 50.67131 -72.49388 37794 ft 452 kts 201°
2026-05-08 01:00 50.61193 -72.52732 37795 ft 452 kts 201°
2026-05-08 01:00 50.55271 -72.56058 37799 ft 452 kts 201°
2026-05-08 01:01 50.49363 -72.59368 37792 ft 452 kts 201°
2026-05-08 01:01 50.43432 -72.62681 37795 ft 452 kts 201°
2026-05-08 01:02 50.37500 -72.65987 37794 ft 451 kts 201°
2026-05-08 01:02 50.31569 -72.69282 37797 ft 452 kts 201°
2026-05-08 01:03 50.25680 -72.72547 37789 ft 451 kts 201°
2026-05-08 01:03 50.19744 -72.75828 37801 ft 451 kts 201°
2026-05-08 01:04 50.13808 -72.79101 37796 ft 451 kts 201°
2026-05-08 01:04 50.07904 -72.82347 37795 ft 451 kts 201°
2026-05-08 01:05 50.01974 -72.85600 37795 ft 451 kts 201°
2026-05-08 01:05 49.96076 -72.88826 37795 ft 451 kts 201°
2026-05-08 01:06 49.90147 -72.92060 37798 ft 451 kts 201°
2026-05-08 01:06 49.84211 -72.95291 37799 ft 451 kts 201°
2026-05-08 01:07 49.78315 -72.98491 37794 ft 451 kts 201°
2026-05-08 01:07 49.72382 -73.01703 37796 ft 451 kts 201°
2026-05-08 01:08 49.66447 -73.04907 37795 ft 451 kts 201°
2026-05-08 01:08 49.60557 -73.08080 37796 ft 451 kts 201°
2026-05-08 01:09 49.54614 -73.11272 37796 ft 451 kts 201°
2026-05-08 01:09 49.48679 -73.14452 37798 ft 451 kts 201°
2026-05-08 01:10 49.42775 -73.17607 37804 ft 451 kts 201°
2026-05-08 01:10 49.36839 -73.20772 37808 ft 451 kts 201°
2026-05-08 01:11 49.30936 -73.23910 37805 ft 451 kts 201°
2026-05-08 01:11 49.25001 -73.27057 37797 ft 451 kts 201°
2026-05-08 01:12 49.19072 -73.30194 37798 ft 451 kts 201°
2026-05-08 01:12 49.13173 -73.33306 37803 ft 450 kts 201°
2026-05-08 01:13 49.07224 -73.36438 37804 ft 450 kts 201°
2026-05-08 01:13 49.01321 -73.39536 37805 ft 450 kts 201°
2026-05-08 01:14 48.95384 -73.42646 37801 ft 450 kts 201°
2026-05-08 01:14 48.89490 -73.45725 37803 ft 450 kts 201°
2026-05-08 01:15 48.83557 -73.48815 37809 ft 450 kts 201°
2026-05-08 01:15 48.77620 -73.51901 37794 ft 450 kts 201°
2026-05-08 01:16 48.71728 -73.54956 37807 ft 450 kts 201°
2026-05-08 01:16 48.65803 -73.58020 37805 ft 450 kts 201°
2026-05-08 01:17 48.59868 -73.61082 37803 ft 450 kts 201°
2026-05-08 01:17 48.53947 -73.64129 37808 ft 449 kts 201°
2026-05-08 01:18 48.48027 -73.67168 37806 ft 449 kts 201°
2026-05-08 01:18 48.42149 -73.70178 37802 ft 449 kts 201°
2026-05-08 01:19 48.36225 -73.73203 37793 ft 449 kts 201°
2026-05-08 01:19 48.30318 -73.76214 37810 ft 448 kts 201°
2026-05-08 01:20 48.24412 -73.79216 37810 ft 448 kts 201°
2026-05-08 01:20 48.18505 -73.82211 37813 ft 448 kts 201°
2026-05-08 01:21 48.12591 -73.85203 37803 ft 448 kts 201°
2026-05-08 01:21 48.06724 -73.88163 37812 ft 448 kts 201°
2026-05-08 01:22 48.00819 -73.91136 37817 ft 448 kts 201°
2026-05-08 01:22 47.94918 -73.94099 37818 ft 448 kts 201°
2026-05-08 01:23 47.90010 -73.96558 37817 ft 447 kts 201°
2026-05-08 01:23 47.84114 -73.99506 37820 ft 447 kts 201°
2026-05-08 01:24 47.78218 -74.02447 37825 ft 447 kts 201°
2026-05-08 01:24 47.72321 -74.05381 37823 ft 447 kts 201°
2026-05-08 01:25 47.66426 -74.08307 37826 ft 447 kts 201°
2026-05-08 01:25 47.60522 -74.11231 37830 ft 447 kts 201°
2026-05-08 01:26 47.54617 -74.14148 37813 ft 447 kts 201°
2026-05-08 01:26 47.48750 -74.17040 37825 ft 447 kts 201°
2026-05-08 01:27 47.42851 -74.19940 37832 ft 446 kts 201°
2026-05-08 01:27 47.36952 -74.22834 37829 ft 446 kts 201°
2026-05-08 01:28 47.31040 -74.25729 37830 ft 446 kts 201°
2026-05-08 01:28 47.25191 -74.28586 37831 ft 446 kts 201°
2026-05-08 01:29 47.19303 -74.31455 37833 ft 446 kts 201°
2026-05-08 01:29 47.13407 -74.34322 37818 ft 446 kts 202°
2026-05-08 01:30 47.07519 -74.37178 37835 ft 445 kts 202°
2026-05-08 01:30 47.01669 -74.40006 37830 ft 445 kts 201°
2026-05-08 01:30 46.98623 -74.40871 37810 ft 449 kts 187°
2026-05-08 01:31 46.95547 -74.41144 37453 ft 440 kts 189°
2026-05-08 01:31 46.92476 -74.41483 36391 ft 448 kts 188°
2026-05-08 01:31 46.89323 -74.41802 35308 ft 458 kts 188°
2026-05-08 01:31 46.86166 -74.42104 34830 ft 452 kts 188°
2026-05-08 01:32 46.83012 -74.42401 33980 ft 456 kts 188°
2026-05-08 01:32 46.79832 -74.42697 33136 ft 456 kts 187°
2026-05-08 01:32 46.76714 -74.42989 32271 ft 457 kts 187°
2026-05-08 01:32 46.73510 -74.43288 31164 ft 463 kts 187°
2026-05-08 01:33 46.70308 -74.43587 30329 ft 462 kts 187°
2026-05-08 01:33 46.67084 -74.43887 29321 ft 464 kts 187°
2026-05-08 01:33 46.63859 -74.44187 28129 ft 467 kts 187°
2026-05-08 01:33 46.60603 -74.44491 27021 ft 468 kts 187°
2026-05-08 01:34 46.57348 -74.44792 26157 ft 465 kts 187°
2026-05-08 01:34 46.54135 -74.45089 25441 ft 460 kts 187°
2026-05-08 01:34 46.50954 -74.45385 24667 ft 456 kts 187°
2026-05-08 01:34 46.47795 -74.45676 23923 ft 453 kts 187°
2026-05-08 01:35 46.44656 -74.45966 23133 ft 451 kts 186°
2026-05-08 01:35 46.41533 -74.46255 22289 ft 448 kts 186°
2026-05-08 01:35 46.38483 -74.46536 21568 ft 443 kts 187°
2026-05-08 01:35 46.35426 -74.46817 20842 ft 439 kts 187°
2026-05-08 01:36 46.32384 -74.47097 20110 ft 435 kts 187°
2026-05-08 01:36 46.29366 -74.47374 19394 ft 431 kts 187°
2026-05-08 01:36 46.26388 -74.47648 18693 ft 428 kts 187°
2026-05-08 01:36 46.23422 -74.47919 17975 ft 425 kts 187°
2026-05-08 01:37 46.20512 -74.48185 17221 ft 422 kts 187°
2026-05-08 01:37 46.17592 -74.48452 16532 ft 417 kts 187°
2026-05-08 01:37 46.14698 -74.48716 15878 ft 413 kts 187°
2026-05-08 01:37 46.11843 -74.48977 15210 ft 409 kts 187°
2026-05-08 01:38 46.09037 -74.49233 14618 ft 405 kts 187°
2026-05-08 01:38 46.06228 -74.49180 13951 ft 407 kts 174°
2026-05-08 01:38 46.03548 -74.47893 13418 ft 408 kts 155°
2026-05-08 01:38 46.01216 -74.45577 12792 ft 407 kts 143°
2026-05-08 01:39 45.99058 -74.43100 12415 ft 397 kts 143°
2026-05-08 01:39 45.96940 -74.40647 12202 ft 385 kts 143°
2026-05-08 01:39 45.94891 -74.38262 12014 ft 372 kts 143°
2026-05-08 01:39 45.92911 -74.35955 11815 ft 361 kts 143°
2026-05-08 01:40 45.90982 -74.33707 11621 ft 351 kts 142°
2026-05-08 01:40 45.89116 -74.31532 11413 ft 341 kts 142°
2026-05-08 01:40 45.87295 -74.29413 11246 ft 331 kts 143°
2026-05-08 01:40 45.85531 -74.27362 11081 ft 322 kts 143°
2026-05-08 01:41 45.83815 -74.25367 10911 ft 313 kts 143°
2026-05-08 01:41 45.82134 -74.23413 10610 ft 310 kts 143°
2026-05-08 01:41 45.80466 -74.21477 10321 ft 306 kts 143°
2026-05-08 01:41 45.78818 -74.19567 10041 ft 302 kts 143°
2026-05-08 01:42 45.77191 -74.17682 9753 ft 299 kts 143°
2026-05-08 01:42 45.75611 -74.15783 9427 ft 297 kts 135°
2026-05-08 01:42 45.74473 -74.13332 9089 ft 296 kts 118°
2026-05-08 01:42 45.73499 -74.10762 8825 ft 291 kts 120°
2026-05-08 01:43 45.72543 -74.08271 8555 ft 287 kts 119°
2026-05-08 01:43 45.71584 -74.05773 8292 ft 284 kts 119°
2026-05-08 01:43 45.70641 -74.03314 8027 ft 280 kts 119°
2026-05-08 01:43 45.69708 -74.00884 7755 ft 279 kts 120°
2026-05-08 01:44 45.68769 -73.98442 7478 ft 280 kts 120°
2026-05-08 01:44 45.67828 -73.95994 7166 ft 281 kts 120°
2026-05-08 01:44 45.66887 -73.93550 6886 ft 278 kts 120°
2026-05-08 01:44 45.65970 -73.91169 6622 ft 275 kts 120°
2026-05-08 01:45 45.65047 -73.88774 6353 ft 276 kts 120°
2026-05-08 01:45 45.64119 -73.86371 6091 ft 277 kts 120°
2026-05-08 01:45 45.63188 -73.83960 5806 ft 277 kts 120°
2026-05-08 01:45 45.62259 -73.81554 5538 ft 276 kts 120°
2026-05-08 01:46 45.61339 -73.79175 5271 ft 274 kts 119°
2026-05-08 01:46 45.60741 -73.76620 4978 ft 271 kts 92°
2026-05-08 01:46 45.61037 -73.74052 4700 ft 260 kts 62°
2026-05-08 01:46 45.62032 -73.72050 4504 ft 239 kts 41°
2026-05-08 01:47 45.63168 -73.70439 4315 ft 228 kts 40°
2026-05-08 01:47 45.64299 -73.68877 4088 ft 227 kts 39°
2026-05-08 01:47 45.65437 -73.67336 3937 ft 221 kts 38°
2026-05-08 01:48 45.67663 -73.64357 3968 ft 224 kts 38°
2026-05-08 01:48 45.68808 -73.62823 3981 ft 227 kts 41°
2026-05-08 01:48 45.69559 -73.60828 3948 ft 234 kts 77°
2026-05-08 01:48 45.69381 -73.58567 3940 ft 229 kts 114°
2026-05-08 01:49 45.68443 -73.56943 3916 ft 200 kts 150°
2026-05-08 01:49 45.67241 -73.56281 3870 ft 176 kts 175°
2026-05-08 01:49 45.66023 -73.55915 3901 ft 186 kts 168°
2026-05-08 01:49 45.64798 -73.55200 3960 ft 197 kts 158°
2026-05-08 01:50 45.63487 -73.54803 3851 ft 190 kts 195°
2026-05-08 01:50 45.62339 -73.55575 3713 ft 181 kts 224°
2026-05-08 01:50 45.61346 -73.56682 3544 ft 181 kts 223°
2026-05-08 01:50 45.60378 -73.57800 3296 ft 175 kts 226°
2026-05-08 01:51 45.59483 -73.58932 3048 ft 171 kts 228°
2026-05-08 01:51 45.58614 -73.60072 2933 ft 167 kts 228°
2026-05-08 01:51 45.57754 -73.61205 2729 ft 168 kts 228°
2026-05-08 01:51 45.56907 -73.62320 2505 ft 166 kts 228°
2026-05-08 01:52 45.56071 -73.63420 2293 ft 157 kts 228°
2026-05-08 01:52 45.55309 -73.64418 2087 ft 141 kts 229°
2026-05-08 01:52 45.54599 -73.65355 1888 ft 137 kts 229°
2026-05-08 01:52 45.53901 -73.66275 1700 ft 136 kts 229°
2026-05-08 01:53 45.53208 -73.67187 1517 ft 135 kts 229°
2026-05-08 01:53 45.52522 -73.68088 1322 ft 136 kts 228°
2026-05-08 01:53 45.51823 -73.69007 1129 ft 138 kts 227°
2026-05-08 01:53 45.51116 -73.69935 921 ft 138 kts 226°
2026-05-08 01:54 45.50397 -73.70877 727 ft 141 kts 225°
2026-05-08 01:54 45.49670 -73.71832 539 ft 143 kts 225°
2026-05-08 01:54 45.48942 -73.72784 332 ft 144 kts 224°
2026-05-08 01:54 45.48199 -73.73749 152 ft 143 kts 225°
2026-05-08 01:55 45.47514 -73.74646 114 ft 118 kts 223°
2026-05-08 01:55 45.47075 -73.75220 111 ft 60 kts 224°
2026-05-08 01:55 45.46768 -73.75634 110 ft 49 kts 222°
2026-05-08 01:55 45.46529 -73.75948 110 ft 44 kts 223°
2026-05-08 01:56 45.46363 -73.76167 106 ft 30 kts 223°
2026-05-08 01:56 45.46260 -73.76225 106 ft 16 kts 161°
2026-05-08 01:56 45.46143 -73.76161 105 ft 18 kts 153°
2026-05-08 01:56 45.46068 -73.76086 106 ft 12 kts 136°
2026-05-08 01:57 45.46051 -73.75988 107 ft 12 kts 83°
2026-05-08 01:57 45.46055 -73.75859 106 ft 15 kts 88°
2026-05-08 01:57 45.46058 -73.75739 106 ft 7 kts 86°
2026-05-08 01:57 45.46058 -73.75730 106 ft 0 kts 86°
2026-05-08 01:58 45.46058 -73.75726 106 ft 1 kts 86°
2026-05-08 01:58 45.46060 -73.75698 106 ft 4 kts 86°
2026-05-08 01:58 45.46062 -73.75645 107 ft 7 kts 87°
2026-05-08 01:58 45.46060 -73.75575 107 ft 7 kts 110°
2026-05-08 01:59 45.46023 -73.75543 107 ft 7 kts 179°
2026-05-08 01:59 45.45995 -73.75544 107 ft 2 kts 176°
2026-05-08 01:59 45.45979 -73.75543 107 ft 2 kts 176°
2026-05-08 01:59 45.45975 -73.75542 107 ft 0 kts 176°